IN3HNH-13 Weather Reports


time (UTC)temp
F
wind
direction
speed
knots
gust
knots
rain 1hr
in
rain 24hr
in
rain mn
in
humidity
%
barometer
mb
20260506134546 58 162 0.0 1.7 0.00 0.09 0.09 82 1008.1
20260506133028 58 162 0.0 0.0 0.01 0.09 0.09 83 1008.0
20260506131553 58 162 0.0 0.0 0.02 0.09 0.09 85 1008.1
20260506130020 57 162 0.0 0.0 0.02 0.09 0.09 84 1008.1
20260506124541 57 162 0.0 0.0 0.02 0.09 0.09 84 1008.1
20260506123011 57 162 0.0 0.0 0.01 0.08 0.08 85 1008.0
20260506121537 57 162 0.0 0.0 0.00 0.07 0.07 84 1007.9
20260506114539 57 162 0.9 6.1 0.02 0.07 0.07 82 1008.3
20260506113108 57 162 0.9 4.3 0.02 0.07 0.07 86 1008.8
20260506111550 57 162 0.0 0.0 0.03 0.07 0.07 88 1008.8
20260506110021 57 162 0.0 0.0 0.03 0.06 0.06 90 1008.9
20260506104543 57 162 0.0 0.0 0.02 0.06 0.06 88 1008.9
20260506103016 57 162 0.0 0.0 0.02 0.05 0.05 88 1009.0
20260506101554 57 162 0.0 0.0 0.01 0.04 0.04 88 1009.0
20260506100015 57 162 0.0 0.0 0.01 0.03 0.03 87 1009.0
20260506094555 57 162 0.0 0.0 0.01 0.03 0.03 87 1009.0
20260506093009 57 162 0.0 0.0 0.01 0.03 0.03 86 1009.1
20260506091541 57 162 0.0 0.0 0.01 0.03 0.03 87 1009.3
20260506090010 57 162 0.0 0.0 0.00 0.02 0.02 87 1009.4
20260506084535 57 162 0.0 0.0 0.00 0.02 0.02 87 1009.4
20260506083005 57 162 0.0 0.0 0.00 0.02 0.02 86 1009.3
20260506081529 56 162 0.0 0.0 0.01 0.02 0.02 89 1009.2
20260506073104 55 162 0.0 0.0 0.02 0.02 0.02 91 1009.2
20260506071518 56 162 0.0 0.0 0.01 0.02 0.02 90 1009.4
20260506061523 55 162 0.0 0.0 0.00 0.01 0.01 90 1009.9
20260506050104 54 162 0.0 0.0 0.01 0.01 0.01 92 1009.6
20260506044534 54 162 0.0 0.0 0.01 0.01 0.01 92 1009.7
20260506043003 54 162 0.0 0.0 0.01 0.01 0.01 91 1009.7
20260506041546 54 162 0.0 0.0 0.00 0.00 0.00 91 1009.8
20260506040005 55 162 0.0 0.0 0.00 0.00 0.00 89 1010.0
20260506034545 55 162 0.0 0.0 0.00 0.00 0.00 88 1010.0
20260506033015 55 162 0.0 0.0 0.00 0.00 0.00 86 1010.0
20260506031557 56 162 0.0 0.0 0.00 0.00 0.00 86 1010.0
20260506030028 56 162 0.0 0.0 0.00 0.00 0.00 86 1009.9
20260506024559 56 162 0.0 0.0 0.00 0.00 0.00 86 1009.9
20260506023024 56 162 0.0 0.0 0.00 0.00 0.00 86 1010.1
20260506021558 56 162 0.0 0.0 0.00 0.00 0.00 86 1010.2
20260506020024 56 162 0.0 0.0 0.00 0.00 0.00 86 1010.5
20260506014557 56 162 0.0 0.0 0.00 0.00 0.00 86 1010.6
20260506013029 56 162 0.0 0.0 0.00 0.00 0.00 86 1010.6
20260506011558 56 162 0.0 0.0 0.00 0.00 0.00 85 1010.8
20260506010026 56 162 0.0 0.0 0.00 0.00 0.00 85 1010.6
20260506004558 56 162 0.0 0.0 0.00 0.00 0.00 85 1010.5
20260506003028 56 162 0.0 0.0 0.00 0.00 0.00 85 1010.6
20260506001618 56 162 0.0 0.0 0.00 0.00 0.00 84 1010.8
20260506000035 56 162 0.0 0.0 0.00 0.00 0.00 83 1010.8
20260505234513 56 162 0.0 0.0 0.00 0.00 0.00 85 1010.8
20260505233057 56 162 0.0 0.0 0.00 0.00 0.00 85 1011.0
20260505231549 56 162 0.0 0.0 0.00 0.00 0.00 84 1011.0
20260505230014 56 162 0.0 0.0 0.00 0.00 0.00 84 1011.0
20260505224550 56 162 0.0 0.0 0.00 0.00 0.00 84 1011.1
20260505223028 56 162 0.0 0.0 0.00 0.00 0.00 84 1011.1
20260505221602 56 162 0.0 0.0 0.00 0.00 0.00 84 1011.2
20260505220043 56 162 0.0 0.0 0.00 0.00 0.00 84 1011.3
20260505214546 56 162 0.0 0.0 0.00 0.00 0.00 83 1011.4
20260505213009 57 162 0.0 0.0 0.00 0.00 0.00 83 1011.6
20260505211614 57 162 0.0 0.0 0.00 0.00 0.00 82 1011.7
20260505210053 57 162 0.0 0.0 0.00 0.00 0.00 82 1011.6
20260505204537 58 162 1.7 6.1 0.00 0.00 0.00 81 1011.6
20260505203016 58 162 0.0 0.0 0.00 0.00 0.00 81 1011.4
20260505201503 58 162 0.0 0.0 0.00 0.00 0.00 81 1011.4
20260505200054 58 162 0.0 0.0 0.00 0.00 0.00 79 1011.4
20260505194537 58 162 0.0 0.0 0.00 0.00 0.00 77 1011.4
20260505193037 58 162 0.0 0.0 0.00 0.00 0.00 77 1011.2
20260505191603 58 162 0.0 0.0 0.00 0.00 0.00 77 1011.1
20260505190103 58 162 0.0 0.0 0.00 0.00 0.00 77 1010.9
20260505184605 58 162 0.0 0.0 0.00 0.00 0.00 77 1010.7
20260505183045 59 162 0.0 0.0 0.00 0.00 0.00 78 1010.6
20260505181518 59 162 0.0 0.0 0.00 0.00 0.00 77 1010.7
20260505180054 59 162 0.0 0.0 0.00 0.00 0.00 78 1010.7
20260505174540 59 162 0.0 0.0 0.00 0.00 0.00 77 1010.6
20260505173014 59 162 0.0 0.0 0.00 0.00 0.00 76 1010.6
20260505171505 59 162 0.0 0.0 0.00 0.00 0.00 77 1010.6
20260505170051 60 162 0.0 0.0 0.00 0.00 0.00 76 1010.7
20260505164531 60 162 0.0 0.0 0.00 0.00 0.00 75 1010.7
20260505163001 60 162 0.0 0.0 0.00 0.00 0.00 74 1010.7
20260505161540 60 162 0.0 0.0 0.00 0.00 0.00 74 1010.7
20260505153052 60 162 0.0 0.0 0.00 0.00 0.00 74 1010.9
20260505151522 60 162 0.0 0.0 0.00 0.00 0.00 74 1010.8